Location: Rodson Ranch
(38.7188°N, 119.3202°W)
Time: 17:06:03
(UTC+00:00)

Cosmos 1703 - Pass Details

Date: 29 October 2020
Orbit: 525 x 539 km, 82.5° (Epoch: 23 November)

Event Time Altitude Azimuth Distance (km) Brightness Sun altitude
Rises 13:46:34 0° 188° (S) 2,642 6.9 -7.5°
Reaches altitude 10° 13:48:42 10° 189° (S) 1,759 6.0 -7.1°
Maximum altitude 13:52:33 83° 276° (W) 535 3.2 -6.3°
Drops below altitude 10° 13:56:28 10° 6° (N) 1,778 5.9 -5.6°
Sets 13:58:37 0° 7° (N) 2,674 6.8 -5.2°
